Date String (YYYY-MM-DD hh:mm:ss) UTC,Instrument flags,absolute air pressure of the measurement (hPa),sample flow rate (lpm),inlet stack bypass flow (lpm),air temperature of the measurement (°C),ambient temperature measured by the external sensor (°C),aerosol sample conditioner tube jacket temperature (°C),OPC LED temperature (°C),internal box temperature (°C),relative humidity of the measurement (%),span deviation,mass concentration of particles derived from Lorenz-Mie calculation of OPC scattering (μg/m³),mass concentration of particles derived from Lorenz-Mie calculation of OPC scattering (μg/m³),mass concentration of particles derived from Lorenz-Mie calculation of OPC scattering (μg/m³)
DateTimeUTC,F1_M11,P_M11,Q1_M11,Q2_M11,T1_M11,T2_M11,T3_M11,T4_M11,T5_M11,U1_M11,ZSPAN_M11,X0_M11,X2_M11,X1_M11
2024-05-30 13:00:00,SystemResetWarning,0830.1,4.99,000.00,030.1,029.3,000.0,038.5,031.9,017.2,0000.0,0012.55,0003.47,0002.29
2024-05-30 13:01:00,SystemResetWarning,0830.1,4.99,000.00,030.1,029.3,000.0,038.5,031.9,016.8,0000.0,0012.65,0003.49,0002.29
2024-05-30 13:02:00,SystemResetWarning,0830.1,5.01,000.00,030.1,029.3,000.0,038.5,031.9,016.8,0000.0,0012.79,0003.49,0002.30
2024-05-30 13:03:00,SystemResetWarning,0830.1,5.01,000.00,030.1,029.3,000.0,038.5,031.8,017.0,0000.0,0011.54,0003.47,0002.31
2024-05-30 13:04:00,SystemResetWarning,0830.1,4.99,000.00,030.1,029.2,000.0,038.5,031.8,017.0,0000.0,0011.23,0003.43,0002.31
2024-05-30 13:05:00,SystemResetWarning,0830.1,4.99,000.00,030.1,029.2,000.0,038.5,031.9,016.9,0000.0,0010.98,0003.44,0002.32
2024-05-30 13:06:00,SystemResetWarning,0830.1,5.01,000.00,030.1,029.2,000.0,038.5,031.8,017.1,0000.0,0009.88,0003.43,0002.35
2024-05-30 13:07:00,SystemResetWarning,0830.1,5.01,000.00,030.1,029.2,000.0,038.5,031.8,017.1,0000.0,0010.51,0003.43,0002.36
2024-05-30 13:08:00,SystemResetWarning,0830.1,4.99,000.00,030.1,029.2,000.0,038.5,031.8,017.1,0000.0,0010.16,0003.39,0002.35
2024-05-30 13:09:00,SystemResetWarning,0830.1,4.99,000.00,030.1,029.2,000.0,038.5,031.8,017.4,0000.0,0010.26,0003.45,0002.37
2024-05-30 13:10:00,SystemResetWarning,0830.2,5.01,000.00,030.1,029.2,000.0,038.5,031.8,017.1,0000.0,0010.17,0003.50,0002.40
2024-05-30 13:11:00,SystemResetWarning,0830.2,5.01,000.00,030.1,029.2,000.0,038.5,031.8,017.1,0000.0,0010.48,0003.51,0002.39
2024-05-30 13:12:00,SystemResetWarning,0830.2,5.00,000.00,030.1,029.2,000.0,038.5,031.8,017.2,0000.0,0010.57,0003.51,0002.39
2024-05-30 13:13:00,SystemResetWarning,0830.1,4.99,000.00,030.1,029.2,000.0,038.5,031.8,017.6,0000.0,0010.03,0003.52,0002.39
2024-05-30 13:14:00,SystemResetWarning,0830.2,4.99,000.00,030.1,029.2,000.0,038.5,031.8,017.6,0000.0,0009.83,0003.53,0002.39
2024-05-30 13:15:00,SystemResetWarning,0830.1,5.01,000.00,030.1,029.2,000.0,038.5,031.8,017.7,0000.0,0010.04,0003.57,0002.40
2024-05-30 13:16:00,SystemResetWarning,0830.1,5.01,000.00,030.0,029.2,000.0,038.5,031.8,018.1,0000.0,0010.62,0003.58,0002.42
2024-05-30 13:17:00,SystemResetWarning,0830.2,5.00,000.00,030.1,029.2,000.0,038.5,031.8,017.8,0000.0,0010.75,0003.60,0002.42
2024-05-30 13:18:00,SystemResetWarning,0830.2,4.99,000.00,030.1,029.2,000.0,038.5,031.8,018.0,0000.0,0010.03,0003.57,0002.40
2024-05-30 13:19:00,SystemResetWarning,0830.2,4.99,000.00,030.0,029.2,000.0,038.5,031.8,017.9,0000.0,0009.28,0003.58,0002.41
2024-05-30 13:20:00,SystemResetWarning,0830.2,4.99,000.00,030.0,029.2,000.0,038.5,031.8,018.0,0000.0,0009.23,0003.56,0002.42
2024-05-30 13:21:00,SystemResetWarning,0830.3,5.00,000.00,030.0,029.2,000.0,038.5,031.8,018.1,0000.0,0009.51,0003.54,0002.42
2024-05-30 13:22:00,SystemResetWarning,0830.3,5.00,000.00,030.0,029.2,000.0,038.4,031.8,018.3,0000.0,0009.21,0003.55,0002.42
2024-05-30 13:23:00,SystemResetWarning,0830.3,5.01,000.00,030.0,029.2,000.0,038.4,031.8,018.2,0000.0,0009.63,0003.62,0002.41
2024-05-30 13:24:00,SystemResetWarning,0830.2,5.00,000.00,030.0,029.2,000.0,038.4,031.7,018.5,0000.0,0009.77,0003.60,0002.40
2024-05-30 13:25:00,SystemResetWarning,0830.2,5.00,000.00,030.1,029.2,000.0,038.4,031.8,018.0,0000.0,0010.34,0003.61,0002.39
2024-05-30 13:26:00,SystemResetWarning,0830.2,4.99,000.00,030.1,029.2,000.0,038.4,031.8,018.2,0000.0,0011.07,0003.63,0002.39
2024-05-30 13:27:00,SystemResetWarning,0830.2,4.99,000.00,030.1,029.2,000.0,038.4,031.8,018.1,0000.0,0010.67,0003.57,0002.35
2024-05-30 13:28:00,SystemResetWarning,0830.2,5.01,000.00,030.1,029.2,000.0,038.5,031.8,018.3,0000.0,0010.67,0003.53,0002.34
2024-05-30 13:29:00,SystemResetWarning,0830.2,5.00,000.00,030.1,029.2,000.0,038.5,031.8,018.2,0000.0,0010.75,0003.56,0002.36
2024-05-30 13:30:00,SystemResetWarning,0830.3,5.00,000.00,030.1,029.3,000.0,038.5,031.9,018.5,0000.0,0010.69,0003.56,0002.35
2024-05-30 13:31:00,SystemResetWarning,0830.3,5.00,000.00,030.1,029.3,000.0,038.5,031.8,018.7,0000.0,0010.31,0003.51,0002.32
2024-05-30 13:32:00,SystemResetWarning,0830.2,4.99,000.00,030.1,029.3,000.0,038.5,031.9,018.9,0000.0,0009.85,0003.49,0002.30
2024-05-30 13:33:00,SystemResetWarning,0830.2,5.00,000.00,030.1,029.3,000.0,038.5,031.8,018.8,0000.0,0009.70,0003.45,0002.30
2024-05-30 13:34:00,SystemResetWarning,0830.2,5.00,000.00,030.1,029.3,000.0,038.5,031.8,018.3,0000.0,0009.03,0003.36,0002.30
2024-05-30 13:35:00,SystemResetWarning,0830.3,4.99,000.00,030.1,029.3,000.0,038.5,031.8,018.4,0000.0,0008.86,0003.36,0002.29
2024-05-30 13:36:00,SystemResetWarning,0830.3,5.00,000.00,030.1,029.3,000.0,038.5,031.9,018.3,0000.0,0008.38,0003.38,0002.29
2024-05-30 13:37:00,SystemResetWarning,0830.2,5.00,000.00,030.1,029.4,000.0,038.5,031.9,018.5,0000.0,0007.65,0003.38,0002.27
2024-05-30 13:38:00,SystemResetWarning,0830.3,4.99,000.00,030.1,029.4,000.0,038.5,031.9,018.2,0000.0,0007.62,0003.42,0002.27
2024-05-30 13:39:00,SystemResetWarning,0830.2,5.00,000.00,030.1,029.4,000.0,038.5,031.9,018.3,0000.0,0007.71,0003.44,0002.26
2024-05-30 13:40:00,SystemResetWarning,0830.2,5.00,000.00,030.2,029.4,000.0,038.5,031.9,018.4,0000.0,0007.94,0003.45,0002.24
2024-05-30 13:41:00,SystemResetWarning,0830.2,4.99,000.00,030.2,029.4,000.0,038.5,031.9,018.1,0000.0,0008.07,0003.46,0002.22
2024-05-30 13:42:00,SystemResetWarning,0830.2,4.99,000.00,030.2,029.4,000.0,038.5,031.9,018.6,0000.0,0008.77,0003.49,0002.22
2024-05-30 13:43:00,SystemResetWarning,0830.2,5.00,000.00,030.2,029.4,000.0,038.5,031.9,018.2,0000.0,0009.46,0003.51,0002.23
2024-05-30 13:44:00,SystemResetWarning,0830.2,5.00,000.00,030.2,029.4,000.0,038.5,031.9,018.3,0000.0,0009.49,0003.50,0002.21
2024-05-30 13:45:00,SystemResetWarning,0830.2,4.99,000.00,030.2,029.4,000.0,038.5,031.9,018.6,0000.0,0010.22,0003.51,0002.21
2024-05-30 13:46:00,SystemResetWarning,0830.2,5.01,000.00,030.2,029.4,000.0,038.5,031.9,018.5,0000.0,0010.43,0003.52,0002.22
2024-05-30 13:47:00,SystemResetWarning,0830.2,5.00,000.00,030.2,029.4,000.0,038.5,031.9,018.3,0000.0,0010.31,0003.48,0002.21
2024-05-30 13:48:00,SystemResetWarning,0830.3,5.00,000.00,030.2,029.5,000.0,038.5,031.9,018.1,0000.0,0010.21,0003.45,0002.23
2024-05-30 13:49:00,SystemResetWarning,0830.2,5.01,000.00,030.2,029.5,000.0,038.5,031.9,018.5,0000.0,0010.35,0003.41,0002.23
2024-05-30 13:50:00,SystemResetWarning,0830.2,5.01,000.00,030.2,029.5,000.0,038.6,031.9,018.6,0000.0,0010.19,0003.41,0002.24
2024-05-30 13:51:00,SystemResetWarning,0830.2,5.01,000.00,030.2,029.5,000.0,038.6,032.0,018.5,0000.0,0009.85,0003.41,0002.25
2024-05-30 13:52:00,SystemResetWarning,0830.3,5.00,000.00,030.3,029.5,000.0,038.6,032.0,018.4,0000.0,0009.74,0003.39,0002.25
2024-05-30 13:53:00,SystemResetWarning,0830.3,4.99,000.00,030.2,029.5,000.0,038.6,032.0,019.0,0000.0,0009.27,0003.41,0002.25
2024-05-30 13:54:00,SystemResetWarning,0830.3,5.00,000.00,030.3,029.5,000.0,038.6,032.0,019.1,0000.0,0008.52,0003.40,0002.24
2024-05-30 13:55:00,SystemResetWarning,0830.3,5.01,000.00,030.3,029.5,000.0,038.6,032.0,018.9,0000.0,0008.31,0003.40,0002.23
2024-05-30 13:56:00,SystemResetWarning,0830.3,5.00,000.00,030.3,029.5,000.0,038.6,032.0,019.6,0000.0,0007.68,0003.39,0002.23
2024-05-30 13:57:00,SystemResetWarning,0830.3,5.00,000.00,030.3,029.5,000.0,038.6,032.0,019.3,0000.0,0007.36,0003.37,0002.23
2024-05-30 13:58:00,SystemResetWarning,0830.3,5.00,000.00,030.3,029.5,000.0,038.6,032.0,019.2,0000.0,0007.79,0003.42,0002.24
2024-05-30 13:59:00,SystemResetWarning,0830.3,5.00,000.00,030.3,029.5,000.0,038.6,032.0,019.0,0000.0,0008.12,0003.44,0002.23
